Skip Page Navigation
NASA JPL Caltech
NASA Logo - Jet Propulsion Laboratory + View the NASA Portal
+ Center for Near-Earth Object Studies
JPL Home Earth Solar System Stars & Galaxies Technology
JPL Solar System Dynamics
BODIES ORBITS EPHEMERIDES TOOLS PHYSICAL DATA DISCOVERY FAQ SITE MAP
IMPORTANT: The SSD Announcement email list is now available. Major changes are coming in the near future, including possible hostname and/or URL changes. To be notified of such changes, subscribe to this email list.

Please visit this page for more details.


JPL Small-Body Database Browser
Search: [ help ]  
214478 (2005 TR63)
Classification: Main-belt Asteroid          SPK-ID: 2214478
Ephemeris | Orbit Diagram | Orbital Elements | Mission Design | Physical Parameters | Discovery Circumstances | Close-Approach Data ]

[ show orbit diagram ]
Orbital Elements at Epoch 2458600.5 (2019-Apr-27.0) TDB
Reference: JPL 14 (heliocentric ecliptic J2000)
 Element Value Uncertainty (1-sigma)   Units 
e .2504523968808259 5.3104e-08  
a 3.033576741270817 3.3327e-08 au
q 2.273810175297616 1.6899e-07 au
i 2.301150384751498 4.7647e-06 deg
node 30.86696472946726 0.00014392 deg
peri 270.8414488478863 0.0001442 deg
M 257.0956180473106 9.5703e-06 deg
tp 2459152.148286526527
(2020-Oct-29.64828653)
5.6219e-05 TDB
period 1929.882667589935
5.28
3.1803e-05
8.707e-08
d
yr
n .1865398379112721 3.074e-09 deg/d
Q 3.793343307244018 4.1674e-08 au
  Orbit Determination Parameters
   # obs. used (total)      344  
   data-arc span      5443 days (14.90 yr)  
   first obs. used      2004-05-16  
   last obs. used      2019-04-11  
   planetary ephem.      DE431  
   SB-pert. ephem.      SB431-N16  
   condition code      0  
   norm. resid. RMS      .5331  
   source      ORB  
   producer      Otto Matic  
   solution date      2019-Jul-14 05:23:13  

Additional Information
 Earth MOID = 1.25908 au 
 Jupiter MOID = 1.46529 au 
 T_jup = 3.192 
[ show covariance matrix ]

Ephemeris | Orbit Diagram | Orbital Elements | Mission Design | Physical Parameters | Discovery Circumstances | Close-Approach Data ]

Physical Parameter Table
Parameter Symbol Value Units Sigma Reference Notes
absolute magnitude H 15.7   n/a MPO433402  
diameter diameter 3.262 km 0.126 urn:nasa:pds:neowise_diameters_albedos::2.0[mainbelt] (http://adsabs.harvard.edu/abs/2011ApJ...741...68M)  
geometric albedo albedo 0.087   0.022 urn:nasa:pds:neowise_diameters_albedos::2.0[mainbelt] (http://adsabs.harvard.edu/abs/2011ApJ...741...68M)  

214478 (2005 TR63)          Discovered 2005-Oct-06 by LONEOS at Anderson Mesa
Reference: 20090509/Numbers.arcLast Updated: 2009-05-11

[ show close-approach data ]
Alternate Designations
 2005 TR63 = 2004 LU16 
Ephemeris | Orbit Diagram | Orbital Elements | Mission Design | Physical Parameters | Discovery Circumstances | Close-Approach Data ]
ABOUT SSD CREDITS/AWARDS PRIVACY/COPYRIGHT GLOSSARY LINKS
FirstGov 2019-Dec-13 10:41 UT
(server date/time)  
NASA Home Page
Site Manager:   Ryan S. Park
Webmaster  Alan B. Chamberlin